Location: Balmoral
(33.0667°S, 151.5833°E)
Time: 01:34:54
(UTC+00:00)

PSLV R/B - Pass Details

Date: 18 September 2020
Orbit: 504 x 578 km, 97.8° (Epoch: 21 October)

Event Time Altitude Azimuth Distance (km) Brightness Sun altitude
Rises 19:08:46 0° 358° (N) 2,714 7.3 -8.9°
Reaches altitude 10° 19:10:56 10° 351° (N) 1,840 6.4 -8.5°
Maximum altitude 19:14:45 43° 279° (W) 812 4.2 -7.7°
Drops below altitude 10° 19:18:41 10° 207° (SSW) 1,902 6.3 -6.8°
Sets 19:20:58 0° 200° (SSW) 2,817 7.3 -6.4°
